Flag for Austria Past Weather in Kirchdorf an der Krems, Upper Austria, Austria — Yesterday and Last 2 Weeks

Now
69 °F

Mild.


Feels Like: 69 °F
Forecast: 61 / 79 °F
Wind: 2 mph from Southwest

Location: Kremsmuenster

Current Time: Jul 25, 2016 at 12:30:26 AM

Latest Report: Jul 25, 2016 at 12:00 AM


Visibility: N/A

Pressure: 30.05 "Hg

Humidity: 83%

Dew Point: 64 °F

Location of Kirchdorf an der KremsLocation

Past Weather in Kirchdorf an der Krems — Graph

°F

Kirchdorf an der Krems Temperature Yesterday

Maximum temperature yesterday: 82 °F (at 5:00 PM)
Minimum temperature yesterday: 66 °F (at 6:00 AM)
Average temperature yesterday: 72 °F

High & Low Weather Summary for the Past Weeks

 TemperatureHumidityPressure
High91 °F (Jul 11, 3:00 PM)93% (Jul 12, 5:00 AM)30.31 "Hg (Jul 12, 5:00 AM)
Low52 °F (Jul 14, 5:00 AM)30% (Jul 20, 5:00 PM)29.80 "Hg (Jul 11, 6:00 PM)
Average68 °F73%30.04 "Hg
* Reported Jul 9 11:00 PM — Jul 24 11:00 PM, Kirchdorf an der Krems, Weather by CustomWeather, © 2016

Note: Actual official high and low records may vary slightly from our data, if they occured in-between our weather recording intervals... More about our weather records

Advertising

Kirchdorf an der Krems Weather History for the Previous 24 Hours

Scroll right to see more
 ConditionsComfort  
Time TempWeatherWind HumidityBarometerVisibility
11:00 PM
Sun, Jul 24
71 °FMild.1 mph81%30.03 "HgN/A
10:00 PM73 °FMild.2 mph74%30.04 "HgN/A
9:00 PM74 °FMild.1 mph71%30.02 "HgN/A
8:00 PM77 °FPassing clouds.3 mph67%30.01 "Hg19 mi
7:00 PM78 °FWarm.1 mph60%30.01 "HgN/A
6:00 PM81 °FWarm.1 mph49%29.99 "HgN/A
5:00 PM82 °FScattered clouds.1 mph54%30.00 "Hg12 mi
4:00 PM80 °FWarm.1 mph52%30.03 "HgN/A
3:00 PM79 °FWarm.2 mph60%30.04 "HgN/A
2:00 PM77 °FWarm.1 mph60%30.06 "HgN/A
1:00 PM76 °FMild.2 mph66%30.06 "HgN/A
12:00 PM72 °FMild.2 mph73%30.08 "HgN/A
11:00 AM71 °FOvercast.3 mph78%30.09 "Hg7 mi
10:00 AM68 °FMild.3 mph85%30.09 "HgN/A
9:00 AM67 °FMild.3 mph88%30.09 "HgN/A
8:00 AM66 °FLight rain. Overcast.3 mph91%30.09 "Hg9 mi
7:00 AM67 °FOvercast.5 mph89%30.08 "Hg3 mi
6:00 AM66 °FMild.2 mph91%30.08 "HgN/A
5:00 AM66 °FMild.3 mph88%30.07 "HgN/A
4:00 AM66 °FMild.3 mph89%30.08 "HgN/A
3:00 AM66 °FMild.7 mph89%30.06 "HgN/A
2:00 AM66 °FMild.3 mph90%30.06 "HgN/A
1:00 AM66 °FMild.3 mph92%30.07 "HgN/A
12:00 AM67 °FFog.5 mph91%30.06 "HgN/A
Weather by CustomWeather, © 2016

See weather overviewHow to use our weather pages